Location: North Mitre
(40.7833°S, 175.4667°E)
Time: 02:27:28
(UTC+00:00)

Cosmos 2242 Rocket - Pass Details

Date: 04 August 2024
Orbit: 616 x 647 km, 82.5° (Epoch: 07 September)

Event Time Altitude Azimuth Distance (km) Brightness Sun altitude
Exits shadow 17:47:27 33° 241° (WSW) 1,102 4.3 -17.8°
Drops below altitude 10° 17:51:07 10° 191° (S) 2,079 6.1 -17.1°
Sets 17:53:36 0° 181° (S) 3,002 7.0 -16.7°
